Location: Mentone
(34.5413°N, 85.5351°W)
Time: 12:45:36
(UTC-05:00)

Cosmos 2150 Rocket - Visible Passes

Search period start: 31 August 2015 00:00
Search period end: 10 September 2015 00:00
Orbit: 750 x 808 km, 74.0° (Epoch: 30 August)

Date Brightness Start Highest point End Pass type
(mag) Time Alt. Az. Time Alt. Az. Time Alt. Az.
01 Sep 6.3 05:38:20 10° SSE 05:42:49 28° E 05:47:22 10° NE visible
02 Sep 6.8 05:06:00 10° SE 05:09:15 17° E 05:12:43 10° ENE visible
04 Sep 4.6 05:38:30 10° S 05:43:46 62° ESE 05:49:01 10° NNE visible
05 Sep 5.6 05:05:17 10° SSE 05:10:08 37° ESE 05:15:01 10° NE visible
06 Sep 6.3 04:32:34 10° SSE 04:36:33 22° E 04:40:39 10° NE visible
07 Sep 6.8 04:00:47 10° ESE 04:02:59 13° E 04:05:30 10° ENE visible
07 Sep 4.1 05:39:34 10° SSW 05:44:51 60° WNW 05:50:05 10° N visible
08 Sep 4.1 05:05:47 10° SSW 05:11:08 82° ESE 05:16:26 10° NNE visible
09 Sep 4.9 04:32:31 11° S 04:37:28 49° ESE 04:42:33 10° NNE visible
